EW7906 Weather Reports


time (UTC)temp
F
wind
direction
speed
knots
gust
knots
rain 1hr
in
rain 24hr
in
rain mn
in
humidity
%
barometer
mb
20260831214327 148 130 0.0 4.3 0.00 0.00 0.00 100 1013.3
20260831213825 148 29 0.9 5.2 0.00 0.00 0.00 100 1013.3
20260831213312 149 115 0.0 5.2 0.00 0.00 0.00 100 1013.4
20260831212756 149 165 2.6 7.8 0.00 0.00 0.00 100 1013.5
20260831212256 149 146 3.5 7.8 0.00 0.00 0.00 100 1013.5
20260831211756 149 119 3.5 7.0 0.00 0.00 0.00 100 1013.6
20260831211256 150 101 1.7 7.0 0.00 0.00 0.00 100 1013.6
20260831211026 150 158 0.0 5.2 0.00 0.00 0.00 100 1013.8
20260831210242 149 123 0.9 5.2 0.00 0.00 0.00 100 1013.9
20260831205740 150 108 3.5 5.2 0.00 0.00 0.00 100 1013.9
20260831205239 150 22 0.9 7.0 0.00 0.00 0.00 100 1014.0
20260831205000 149 139 0.9 7.0 0.00 0.00 0.00 100 1014.2
20260831204228 149 112 3.5 7.0 0.00 0.00 0.00 100 1014.3
20260831203724 150 143 0.0 5.2 0.00 0.00 0.00 100 1014.3
20260831203226 150 154 1.7 7.8 0.00 0.00 0.00 100 1014.5
20260831202717 149 191 3.5 7.8 0.00 0.00 0.00 100 1014.6
20260831202217 150 229 2.6 7.8 0.00 0.00 0.00 100 1014.6
20260831201947 149 115 3.5 7.8 0.00 0.00 0.00 100 1014.8
20260831201214 150 202 0.9 8.7 0.00 0.00 0.00 100 1014.8
20260831200715 149 167 4.3 9.6 0.00 0.00 0.00 100 1014.9
20260831200219 149 154 3.5 9.6 0.00 0.00 0.00 100 1015.1
20260831200215 149 136 3.5 9.6 0.00 0.00 0.00 100 1015.0
20260831195447 149 187 5.2 9.6 0.00 0.00 0.00 100 1015.2
20260831194711 149 112 0.0 7.8 0.00 0.00 0.00 100 1015.2
20260831194158 149 150 0.0 7.8 0.00 0.00 0.00 100 1015.3
20260831193928 148 144 5.2 8.7 0.00 0.00 0.00 100 1015.4
20260831193156 147 109 3.5 8.7 0.00 0.00 0.00 100 1015.4
20260831192657 149 225 0.0 6.1 0.00 0.00 0.00 100 1015.4
20260831192427 148 206 1.7 8.7 0.00 0.00 0.00 100 1015.7
20260831191657 148 151 4.3 8.7 0.00 0.00 0.00 100 1015.7
20260831191157 149 181 2.6 7.8 0.00 0.00 0.00 100 1015.7
20260831190655 149 132 0.9 7.8 0.00 0.00 0.00 100 1015.9
20260831190150 149 144 4.3 8.7 0.00 0.00 0.00 100 1016.0
20260831185646 149 184 3.5 8.7 0.00 0.00 0.00 100 1016.1
20260831185147 149 125 0.0 8.7 0.00 0.00 0.00 100 1016.1
20260831184644 149 164 4.3 8.7 0.00 0.00 0.00 100 1016.2
20260831184143 149 198 0.0 7.8 0.00 0.00 0.00 100 1016.2
20260831183643 148 174 2.6 7.8 0.00 0.00 0.00 100 1016.3
20260831183142 149 199 0.0 6.1 0.00 0.00 0.00 100 1016.3
20260831182642 148 167 1.7 6.1 0.00 0.00 0.00 100 1016.4
20260831182143 147 118 0.0 7.8 0.00 0.00 0.00 100 1016.4
20260831181636 148 146 3.5 7.8 0.00 0.00 0.00 100 1016.4
20260831181137 148 147 1.7 7.8 0.00 0.00 0.00 100 1016.4
20260831180634 148 246 0.9 7.0 0.00 0.00 0.00 100 1016.5
20260831180131 148 149 2.6 7.0 0.00 0.00 0.00 100 1016.6
20260831175630 147 118 4.3 7.8 0.00 0.00 0.00 100 1016.7
20260831175115 148 189 5.2 7.8 0.00 0.00 0.00 100 1016.8
20260831174616 148 195 1.7 7.8 0.00 0.00 0.00 100 1016.9
20260831174116 148 140 1.7 7.8 0.00 0.00 0.00 100 1017.0
20260831173613 148 136 5.2 7.8 0.00 0.00 0.00 100 1017.0
20260831173113 148 205 0.0 5.2 0.00 0.00 0.00 100 1017.0
20260831172611 147 165 2.6 5.2 0.00 0.00 0.00 100 1017.2
20260831172111 148 180 0.0 9.6 0.00 0.00 0.00 100 1017.2
20260831171611 147 153 1.7 9.6 0.00 0.00 0.00 100 1017.2
20260831171112 148 108 0.0 6.1 0.00 0.00 0.00 100 1017.3
20260831170602 147 108 0.0 7.8 0.00 0.00 0.00 100 1017.3
20260831170332 147 123 5.2 7.8 0.00 0.00 0.00 100 1017.5
20260831165558 147 154 2.6 7.8 0.00 0.00 0.00 100 1017.3
20260831165057 147 142 5.2 7.8 0.00 0.00 0.00 100 1017.3
20260831164827 148 192 0.9 7.8 0.00 0.00 0.00 100 1017.3
20260831164056 147 132 4.3 7.8 0.00 0.00 0.00 100 1017.5
20260831163557 147 164 2.6 7.8 0.00 0.00 0.00 100 1017.5
20260831163101 147 126 1.7 6.1 0.00 0.00 0.00 100 1017.3
20260831163057 147 164 1.7 6.1 0.00 0.00 0.00 100 1017.3
20260831162328 147 348 0.0 7.8 0.00 0.00 0.00 100 1017.3
20260831161545 146 126 5.2 8.7 0.00 0.00 0.00 100 1017.5
20260831161043 147 157 4.3 8.7 0.00 0.00 0.00 100 1017.3
20260831160533 146 160 3.5 6.1 0.00 0.00 0.00 100 1017.3
20260831160304 147 267 0.0 7.0 0.00 0.00 0.00 100 1017.5
20260831155514 147 129 2.6 7.0 0.00 0.00 0.00 100 1017.5
20260831155014 147 122 0.9 7.0 0.00 0.00 0.00 100 1017.5
20260831154509 147 171 0.9 7.8 0.00 0.00 0.00 100 1017.5
20260831154005 147 226 5.2 7.8 0.00 0.00 0.00 100 1017.3
20260831153505 146 180 3.5 7.0 0.00 0.00 0.00 100 1017.3
20260831153005 146 158 1.7 7.0 0.00 0.00 0.00 100 1017.2
20260831152457 146 189 2.6 6.1 0.00 0.00 0.00 100 1017.2
20260831151956 145 150 2.6 7.0 0.00 0.00 0.00 100 1017.2
20260831151456 145 203 3.5 7.8 0.00 0.00 0.00 100 1017.1
20260831150956 145 163 1.7 7.8 0.00 0.00 0.00 100 1017.2
20260831150455 145 210 3.5 6.1 0.00 0.00 0.00 100 1017.1
20260831145955 145 160 3.5 7.8 0.00 0.00 0.00 100 1017.0
20260831145457 145 116 1.7 7.8 0.00 0.00 0.00 100 1017.0
20260831144957 145 172 2.6 6.1 0.00 0.00 0.00 100 1016.9
20260831144457 145 132 3.5 7.0 0.00 0.00 0.00 100 1016.9
20260831143956 145 137 1.7 7.0 0.00 0.00 0.00 100 1017.0
20260831143714 145 153 2.6 5.2 0.00 0.00 0.00 100 1016.9
20260831142944 145 151 0.0 7.8 0.00 0.00 0.00 100 1016.8
20260831142443 145 125 1.7 7.8 0.00 0.00 0.00 100 1016.9
20260831142213 145 198 2.6 7.8 0.00 0.00 0.00 100 1016.9
20260831141442 144 222 1.7 7.8 0.00 0.00 0.00 100 1016.8
20260831140942 144 188 3.5 7.8 0.00 0.00 0.00 100 1016.8
20260831140441 144 191 0.0 7.8 0.00 0.00 0.00 100 1016.7
20260831140146 144 194 0.0 7.8 0.00 0.00 0.00 100 1016.7
20260831135416 144 247 4.3 8.7 0.00 0.00 0.00 100 1016.6
20260831134910 144 171 3.5 8.7 0.00 0.00 0.00 100 1016.6
20260831134642 144 209 4.3 6.1 0.00 0.00 0.00 100 1016.6
20260831134142 144 157 0.0 6.1 0.00 0.00 0.00 100 1016.6
20260831133356 144 157 0.0 6.1 0.00 0.00 0.00 100 1016.5
20260831132851 144 178 0.0 4.3 0.00 0.00 0.00 1 1016.5
20260831132351 144 188 0.0 0.0 0.00 0.00 0.00 3 1016.6
20260831131843 144 188 0.0 0.0 0.00 0.00 0.00 4 1016.6
20260831131333 143 188 0.0 0.0 0.00 0.00 0.00 5 1016.5
20260831131048 143 188 0.0 0.0 0.00 0.00 0.00 6 1016.4
20260831130311 143 188 0.0 0.0 0.00 0.00 0.00 7 1016.4
20260831130043 143 188 0.0 0.0 0.00 0.00 0.00 12 1016.3
20260831125306 143 188 0.0 0.0 0.00 0.00 0.00 16 1016.2
20260831124802 143 188 0.0 0.0 0.00 0.00 0.00 16 1016.2
20260831124507 143 188 0.0 0.0 0.00 0.00 0.00 16 1016.1
20260831123734 143 188 0.0 0.0 0.00 0.00 0.00 16 1016.2
20260831123504 143 188 0.0 0.0 0.00 0.00 0.00 16 1016.1
20260831122724 143 188 0.0 0.0 0.00 0.00 0.00 13 1016.1
20260831122216 143 188 0.0 0.0 0.00 0.00 0.00 10 1016.0
20260831121711 143 188 0.0 0.0 0.00 0.00 0.00 7 1016.1
20260831121210 143 188 0.0 0.0 0.00 0.00 0.00 6 1016.0
20260831120651 143 188 0.0 0.0 0.00 0.00 0.00 5 1016.0
20260831120115 143 188 0.0 0.0 0.00 0.00 0.00 4 1015.9
20260831115827 143 188 0.0 0.0 0.00 0.00 0.00 3 1015.9
20260831115047 143 188 0.0 0.0 0.00 0.00 0.00 3 1015.9
20260831114526 143 188 0.0 0.0 0.00 0.00 0.00 2 1015.9
20260831114024 143 188 0.0 3.5 0.00 0.00 0.00 2 1015.9
20260831113512 143 188 0.0 5.2 0.00 0.00 0.00 2 1016.0
20260831113228 143 192 0.9 6.1 0.00 0.00 0.00 2 1016.0
20260831112456 143 174 0.0 6.1 0.00 0.00 0.00 2 1016.0
20260831111441 143 136 0.0 0.0 0.00 0.00 0.00 2 1015.9
20260831110936 143 136 0.0 0.0 0.00 0.00 0.00 2 1015.9
20260831110437 143 136 0.0 5.2 0.00 0.00 0.00 2 1015.8
20260831105927 143 136 0.0 5.2 0.00 0.00 0.00 1 1015.7
20260831105427 143 213 0.0 5.2 0.00 0.00 0.00 1 1015.8
20260831104924 143 201 0.0 3.5 0.00 0.00 0.00 1 1015.8
20260831104416 143 201 0.9 3.5 0.00 0.00 0.00 100 1015.8
20260831103911 143 153 0.0 6.1 0.00 0.00 0.00 100 1015.8
20260831103409 144 153 0.0 6.1 0.00 0.00 0.00 100 1015.9
20260831102858 143 157 0.0 3.5 0.00 0.00 0.00 100 1015.8
20260831102357 143 157 0.0 6.1 0.00 0.00 0.00 100 1015.8
20260831101855 143 163 2.6 6.1 0.00 0.00 0.00 100 1015.8
20260831101355 143 161 3.5 5.2 0.00 0.00 0.00 100 1015.8
20260831100840 143 165 0.0 5.2 0.00 0.00 0.00 100 1015.9
20260831100341 143 170 0.0 3.5 0.00 0.00 0.00 100 1015.9
20260831095831 143 170 0.0 5.2 0.00 0.00 0.00 100 1015.9
20260831095308 144 101 0.0 5.2 0.00 0.00 0.00 100 1015.9
20260831095037 144 199 0.9 4.3 0.00 0.00 0.00 100 1015.9
20260831094304 144 174 0.0 6.1 0.00 0.00 0.00 100 1015.9
20260831094028 144 174 1.7 6.1 0.00 0.00 0.00 100 1015.8
20260831093230 143 196 0.0 5.2 0.00 0.00 0.00 100 1015.9
20260831092730 144 213 0.0 4.3 0.00 0.00 0.00 100 1015.9
20260831092230 144 133 0.0 4.3 0.00 0.00 0.00 100 1015.8
20260831091728 144 206 0.0 5.2 0.00 0.00 0.00 100 1015.8
20260831091444 143 170 0.0 5.2 0.00 0.00 0.00 100 1015.7
20260831090940 143 154 0.0 7.8 0.00 0.00 0.00 100 1015.6
20260831090208 143 161 0.0 9.6 0.00 0.00 0.00 100 1015.7
20260831085708 143 208 2.6 9.6 0.00 0.00 0.00 100 1015.7
20260831085429 144 177 3.5 7.8 0.00 0.00 0.00 100 1015.8
20260831084658 144 150 0.9 8.7 0.00 0.00 0.00 100 1015.8
20260831084156 144 191 4.3 8.7 0.00 0.00 0.00 100 1015.8
20260831083656 144 111 1.7 6.1 0.00 0.00 0.00 100 1015.8
20260831083155 144 164 1.7 6.1 0.00 0.00 0.00 100 1015.8
20260831082656 144 165 3.5 5.2 0.00 0.00 0.00 100 1015.9
20260831082157 144 140 0.0 4.3 0.00 0.00 0.00 100 1015.9
20260831081643 144 160 0.9 7.8 0.00 0.00 0.00 100 1015.9
20260831081131 144 158 1.7 7.8 0.00 0.00 0.00 100 1016.0
20260831080632 144 143 1.7 5.2 0.00 0.00 0.00 100 1016.0
20260831080132 144 135 0.0 4.3 0.00 0.00 0.00 100 1016.0
20260831075630 144 149 0.0 5.2 0.00 0.00 0.00 100 1015.9
20260831075118 143 151 0.9 5.2 0.00 0.00 0.00 100 1015.9
20260831074618 143 205 0.9 8.7 0.00 0.00 0.00 100 1015.9
20260831074116 143 177 4.3 8.7 0.00 0.00 0.00 100 1015.9
20260831073618 143 82 0.0 7.0 0.00 0.00 0.00 100 1015.9
20260831073311 143 174 0.0 7.0 0.00 0.00 0.00 100 1015.9
20260831072538 144 160 3.5 7.0 0.00 0.00 0.00 100 1015.9
20260831072036 144 156 3.5 7.0 0.00 0.00 0.00 100 1016.0
20260831071807 144 142 0.0 5.2 0.00 0.00 0.00 100 1015.9
20260831071037 144 194 0.0 5.2 0.00 0.00 0.00 100 1016.0
20260831070537 144 149 1.7 8.7 0.00 0.00 0.00 100 1015.9
20260831070014 144 175 2.6 8.7 0.00 0.00 0.00 100 1015.9
20260831065514 144 139 0.0 6.1 0.00 0.00 0.00 100 1016.0
20260831064958 144 150 4.3 6.1 0.00 0.00 0.00 100 1015.9
20260831064456 144 177 0.0 6.1 0.00 0.00 0.00 100 1016.0
20260831063956 144 194 2.6 4.3 0.00 0.00 0.00 100 1016.0
20260831063730 144 167 0.0 3.5 0.00 0.00 0.00 100 1016.0
20260831063216 144 127 0.0 4.3 0.00 0.00 0.00 100 1016.1
20260831062441 144 123 1.7 4.3 0.00 0.00 0.00 100 1016.1
20260831061938 144 142 0.0 7.8 0.00 0.00 0.00 100 1015.9
20260831061414 144 149 1.7 7.8 0.00 0.00 0.00 100 1015.9
20260831061144 145 108 0.0 2.6 0.00 0.00 0.00 100 1015.8
20260831060410 145 153 0.0 0.0 0.00 0.00 0.00 100 1015.8
20260831060340 145 153 0.0 0.0 0.00 0.00 0.00 100 1015.8
20260831055557 145 153 0.0 4.3 0.00 0.00 0.00 100 1015.8
20260831054811 145 153 0.0 5.2 0.00 0.00 0.00 100 1015.7
20260831054308 145 142 0.9 5.2 0.00 0.00 0.00 100 1015.7
20260831053800 145 132 0.0 3.5 0.00 0.00 0.00 100 1015.6
20260831053256 145 154 1.7 5.2 0.00 0.00 0.00 100 1015.6
20260831052755 145 161 1.7 5.2 0.00 0.00 0.00 100 1015.6
20260831052248 145 113 0.0 7.0 0.00 0.00 0.00 100 1015.4
20260831051747 145 113 0.0 7.0 0.00 0.00 0.00 100 1015.4
20260831051509 145 174 0.0 5.2 0.00 0.00 0.00 100 1015.3
20260831050736 145 160 1.7 5.2 0.00 0.00 0.00 100 1015.3
20260831050507 145 165 0.0 4.3 0.00 0.00 0.00 100 1015.3
20260831045728 145 177 0.9 4.3 0.00 0.00 0.00 100 1015.2
20260831045218 145 126 3.5 6.1 0.00 0.00 0.00 100 1015.2
20260831044716 145 163 1.7 6.1 0.00 0.00 0.00 100 1015.1
20260831044210 145 201 0.0 6.1 0.00 0.00 0.00 100 1015.1
20260831043657 145 171 3.5 9.6 0.00 0.00 0.00 100 1015.1
20260831043157 145 180 2.6 9.6 0.00 0.00 0.00 100 1015.2
20260831042657 145 149 1.7 7.8 0.00 0.00 0.00 100 1015.3
20260831042428 145 154 4.3 7.8 0.00 0.00 0.00 100 1015.3
20260831041701 145 136 3.5 7.0 0.00 0.00 0.00 100 1015.2
20260831041657 145 157 4.3 7.0 0.00 0.00 0.00 100 1015.2
20260831040657 145 157 3.5 7.0 0.00 0.00 0.00 100 1015.2
20260831040157 145 130 2.6 6.1 0.00 0.00 0.00 100 1015.2
20260831035927 146 203 3.5 7.0 0.00 0.00 0.00 100 1015.2
20260831035157 146 130 4.3 8.7 0.00 0.00 0.00 100 1015.1
20260831034657 146 129 5.2 8.7 0.00 0.00 0.00 100 1015.0
20260831034157 145 149 3.5 8.7 0.00 0.00 0.00 100 1015.0
20260831033927 145 150 3.5 8.7 0.00 0.00 0.00 100 1014.8
20260831033428 146 157 1.7 8.7 0.00 0.00 0.00 100 1014.8
20260831032656 146 170 1.7 8.7 0.00 0.00 0.00 100 1014.7
20260831032157 146 181 3.5 8.7 0.00 0.00 0.00 100 1014.6
20260831031657 146 139 1.7 7.0 0.00 0.00 0.00 100 1014.5
20260831031157 146 132 0.0 7.8 0.00 0.00 0.00 100 1014.5
20260831030657 146 133 2.6 8.7 0.00 0.00 0.00 100 1014.3
20260831030428 146 149 0.9 8.7 0.00 0.00 0.00 100 1014.2
20260831025658 146 127 3.5 9.6 0.00 0.00 0.00 100 1014.3
20260831025427 146 135 5.2 9.6 0.00 0.00 0.00 100 1014.2
20260831024657 146 168 2.6 8.7 0.00 0.00 0.00 100 1014.1
20260831024157 146 153 3.5 8.7 0.00 0.00 0.00 100 1014.1
20260831023656 146 172 4.3 8.7 0.00 0.00 0.00 100 1014.0
20260831023156 146 140 3.5 8.7 0.00 0.00 0.00 100 1014.0
20260831022656 146 135 3.5 10.4 0.00 0.00 0.00 100 1013.9
20260831022156 146 158 3.5 10.4 0.00 0.00 0.00 100 1013.8
20260831021656 146 143 4.3 9.6 0.00 0.00 0.00 100 1013.6
20260831021150 146 139 0.9 9.6 0.00 0.00 0.00 100 1013.5
20260831020650 146 164 1.7 10.4 0.00 0.00 0.00 100 1013.4
20260831020150 147 112 4.3 10.4 0.00 0.00 0.00 100 1013.4
20260831015643 147 161 2.6 8.7 0.00 0.00 0.00 100 1013.3
20260831015142 146 90 0.0 0.0 0.00 0.00 0.00 100 1013.1
20260831014626 147 90 0.0 0.0 0.00 0.00 0.00 100 1013.0
20260831014113 147 90 0.0 1.7 0.00 0.00 0.00 100 1012.9
20260831013616 147 130 0.0 0.0 0.00 0.00 0.00 100 1012.6
20260831013612 147 90 0.0 1.7 0.00 0.00 0.00 100 1012.9
20260831012830 147 130 0.0 4.3 0.00 0.00 0.00 100 1012.6
20260831012037 147 130 0.9 4.3 0.00 0.00 0.00 100 1012.6
20260831011528 147 129 0.0 3.5 0.00 0.00 0.00 100 1012.5
20260831011028 147 136 0.0 3.5 0.00 0.00 0.00 100 1012.5
20260831010500 147 149 0.0 6.1 0.00 0.00 0.00 100 1012.6
20260831010224 147 149 0.0 6.1 0.00 0.00 0.00 100 1012.5
20260831005427 147 174 0.0 4.3 0.00 0.00 0.00 100 1012.6
20260831004911 147 202 1.7 4.3 0.00 0.00 0.00 100 1012.6
20260831004412 147 147 0.0 6.1 0.00 0.00 0.00 100 1012.6
20260831003852 147 147 2.6 6.1 0.00 0.00 0.00 100 1012.5
20260831003351 147 129 2.6 5.2 0.00 0.00 0.00 100 1012.4
20260831002847 147 156 2.6 7.8 0.00 0.00 0.00 100 1012.4
20260831002330 147 104 3.5 7.8 0.00 0.00 0.00 100 1012.4
20260831001831 147 153 0.0 6.1 0.00 0.00 0.00 100 1012.3
20260831001309 148 153 0.0 6.1 0.00 0.00 0.00 100 1012.3
20260831000744 148 139 0.0 6.1 0.00 0.00 0.00 100 1012.3
20260831000242 148 136 0.9 7.0 0.00 0.00 0.00 100 1012.2
20260830235743 148 127 0.9 7.0 0.00 0.00 0.00 100 1012.3
20260830235234 148 112 3.5 5.2 0.00 0.00 0.00 100 1012.3
20260830234736 148 116 0.0 5.2 0.00 0.00 0.00 100 1012.3
20260830234233 148 153 0.0 7.8 0.00 0.00 0.00 100 1012.4
20260830234229 148 116 3.5 7.0 0.00 0.00 0.00 100 1012.3
20260830233446 148 146 2.6 7.0 0.00 0.00 0.00 100 1012.3
20260830232945 148 151 0.0 3.5 0.00 0.00 0.00 100 1012.2
20260830232212 149 230 0.9 8.7 0.00 0.00 0.00 100 1012.3
20260830231711 148 144 2.6 8.7 0.00 0.00 0.00 100 1012.4
20260830231210 149 180 0.0 7.0 0.00 0.00 0.00 100 1012.3
20260830230710 149 210 0.9 7.0 0.00 0.00 0.00 100 1012.3
20260830230207 149 125 2.6 7.8 0.00 0.00 0.00 100 1012.3
20260830225937 148 147 0.0 7.8 0.00 0.00 0.00 100 1012.3
20260830225158 148 143 5.2 7.8 0.00 0.00 0.00 100 1012.4
20260830224659 149 201 0.9 7.8 0.00 0.00 0.00 100 1012.5
20260830224143 149 192 4.3 6.1 0.00 0.00 0.00 100 1012.5
20260830223646 149 143 2.6 7.0 0.00 0.00 0.00 100 1012.5
20260830223642 149 147 1.7 7.0 0.00 0.00 0.00 100 1012.5
20260830222622 149 160 1.7 7.0 0.00 0.00 0.00 100 1012.5
20260830222113 149 130 1.7 9.6 0.00 0.00 0.00 100 1012.5
20260830221559 149 150 5.2 9.6 0.00 0.00 0.00 100 1012.6
20260830221059 149 129 0.0 7.8 0.00 0.00 0.00 100 1012.5
20260830220826 149 181 1.7 7.8 0.00 0.00 0.00 100 1012.8
20260830220056 149 122 1.7 7.0 0.00 0.00 0.00 100 1012.8
20260830215556 149 185 1.7 7.0 0.00 0.00 0.00 100 1012.8
20260830215058 148 153 0.0 8.7 0.00 0.00 0.00 100 1012.8